This is the latest recevied weather packets stored in our database for station/object K5SVV. If no packets are shown the sender has not sent any weather packets the latest 10 day(s).
| Time | Temp. | Humidity | Pressure | Rain* | Wind** | Luminosity | Snow |
|---|---|---|---|---|---|---|---|
| 1777420826 | 25.56° C | 92% | 1010.1 hPa | 3.05 mm | - | 0 W/m² | - |
| 1777420522 | 26.11° C | 90% | 1009.6 hPa | 1.78 mm | - | 0 W/m² | - |
| 1777420219 | 26.11° C | 90% | 1009.5 hPa | 0 mm | - | 1 W/m² | - |
| 1777419914 | 26.11° C | 89% | 1009.5 hPa | 0 mm | - | 2 W/m² | - |
| 1777419611 | 26.11° C | 89% | 1008.9 hPa | 0 mm | - | 2 W/m² | - |
| 1777419310 | 26.11° C | 89% | 1009 hPa | 0 mm | - | 3 W/m² | - |
| 1777419009 | 26.11° C | 90% | 1009.1 hPa | 0 mm | - | 4 W/m² | - |
| 1777418708 | 26.11° C | 89% | 1008.6 hPa | 0 mm | - | 9 W/m² | - |
| 1777418405 | 26.11° C | 89% | 1008.3 hPa | 0 mm | - | 12 W/m² | - |
| 1777418101 | 26.11° C | 89% | 1008.6 hPa | 0 mm | - | 15 W/m² | - |
| 1777417797 | 26.11° C | 89% | 1008.7 hPa | 0 mm | - | 14 W/m² | - |
| 1777417492 | 26.11° C | 89% | 1008.9 hPa | 0 mm | - | 14 W/m² | - |
| 1777417189 | 26.11° C | 89% | 1009.3 hPa | 0 mm | - | 14 W/m² | - |
| 1777416885 | 26.11° C | 89% | 1009.5 hPa | 0 mm | - | 16 W/m² | - |
| 1777416580 | 26.11° C | 89% | 1009.6 hPa | 0 mm | - | 16 W/m² | - |
| 1777416277 | 26.11° C | 89% | 1009.8 hPa | 0 mm | - | 20 W/m² | - |
| 1777415976 | 26.11° C | 89% | 1009.4 hPa | 0 mm | - | 23 W/m² | - |
| 1777415672 | 26.67° C | 89% | 1009.4 hPa | 0 mm | - | 29 W/m² | - |
| 1777415367 | 26.67° C | 88% | 1009.5 hPa | 0 mm | - | 29 W/m² | - |
| 1777415062 | 26.67° C | 88% | 1009.5 hPa | 0 mm | - | 38 W/m² | - |
| 1777414756 | 26.67° C | 88% | 1008.9 hPa | 0 mm | - | 44 W/m² | - |
| 1777414453 | 26.67° C | 87% | 1008.9 hPa | 0 mm | - | 46 W/m² | - |
| 1777414151 | 26.67° C | 87% | 1009.6 hPa | 0 mm | - | 35 W/m² | - |
| 1777413848 | 26.67° C | 87% | 1009.2 hPa | 0 mm | - | 28 W/m² | - |
| 1777413543 | 26.67° C | 87% | 1009.2 hPa | 0 mm | - | 29 W/m² | - |
* Rain latest hour (hover to see other rain measurements)
** Current wind speed in m/s (hover to see current wind gust speed)